Regional Weather Roundup
Issued by NWS

Home | Current Version | Previous Version | Graphics & Text | Print | Product List | Glossary On
Versions: 1 2 3 4 5 6 7 8 9 10 11 12 13 14 15 16 17 18 19 20 21 22 23 24 25 26 27 28 29 30 31 32 33 34 35 36 37 38 39 40 41 42 43 44 45 46 47 48 49 50
000
ASUS43 KMKX 280121
RWRWI

WISCONSIN REGIONAL WEATHER ROUNDUP
NATIONAL WEATHER SERVICE MILWAUKEE/SULLIVAN WI
700 PM CST MON FEB 27 2017

NOTE: "FAIR" INDICATES FEW OR NO CLOUDS BELOW 12,000 FEET WITH NO
SIGNIFICANT WEATHER AND/OR OBSTRUCTIONS TO VISIBILITY.

WIZ001-002-006>008-014>016-023>028-280200-
NORTHWEST WISCONSIN

CITY           SKY/WX    TMP DP  RH WIND       PRES   REMARKS
SUPERIOR ARPT  CLOUDY    29  26  89 E7        29.92R WCI  21
ASHLAND        MOCLDY    25  23  92 N3        29.94R
HAYWARD        CLOUDY    36  16  44 S7        29.92R WCI  30
SIREN          PTCLDY    37  18  46 S8        29.89F WCI  31
CUMBERLAND     PTCLDY    32  21  64 SE7       29.91S WCI  26
RICE LAKE      CLEAR     34  22  60 SE7       29.93F WCI  28
CHETEK         CLEAR     32  22  66 E3        29.93S
LADYSMITH      MOCLDY    36  19  50 SE6       29.95S WCI  31
EAU CLAIRE     MOCLDY    37  21  52 SE7       29.93F WCI  32
MENOMONIE      MOCLDY    35  22  59 E6        29.93S WCI  30
NEW RICHMOND   MOCLDY    34  22  62 SE6       29.90S WCI  28
OSCEOLA        MOCLDY    37  22  54 SE9       29.92F WCI  30
$$

WIZ003>005-009-010-017-018-280200-
NORTH CENTRAL WISCONSIN

CITY           SKY/WX    TMP DP  RH WIND       PRES   REMARKS
MANITOWISH WTR MOCLDY    32  18  55 S7        29.94R WCI  26
ARBOR VITAE    CLEAR     34  19  54 S5          N/A  WCI  30
WOODRUFF       CLEAR     34  19  54 S5          N/A  WCI  30
RHINELANDER    PTCLDY    33  17  51 CALM      29.97R
EAGLE RIVER    MOCLDY    32  15  49 CALM      29.96R
LAND O LAKES   CLEAR     32  18  55 S5        29.97R WCI  27
PHILLIPS       CLOUDY    34  19  54 SE5       29.94S WCI  30
TOMAHAWK       MOCLDY    29  19  67 CALM      29.97S
MEDFORD        MOCLDY    31  18  60 SE6       29.96R WCI  25
MERRILL        NOT AVBL
$$

WIZ029-030-035-036-043>047-280200-
CENTRAL WISCONSIN

CITY           SKY/WX    TMP DP  RH WIND       PRES   REMARKS
WAUSAU         CLOUDY    36  21  54 SE7       29.98R WCI  30
MOSINEE        CLEAR     34  25  69 SE8       30.00R WCI  27
MARSHFIELD     CLEAR     36  24  62 SE6       29.97R WCI  31
STEVENS POINT  CLEAR     34  26  72 SE3       30.01S
WAUPACA        CLEAR     36  29  77 E3        30.03S
WAUTOMA        CLEAR     32  28  85 CALM      30.03S
WISC RAPIDS    CLEAR     35  27  72 SE5       30.01S WCI  31
CAMP DOUGLAS   MOCLDY    34  28  80 E5        29.98F WCI  30
$$

WIZ011>013-019>022-031-037>040-048>050-280200-
NORTHEAST WISCONSIN

CITY           SKY/WX    TMP DP  RH WIND       PRES   REMARKS
ANTIGO         PTCLDY    31  22  71 SE8       30.00R WCI  23
SHAWANO        MOCLDY    36  29  76 S7        30.04S WCI  30
OCONTO         CLOUDY    33  29  86 S6        30.06S WCI  27
STURGEON BAY   PTCLDY    34  31  88 S8        30.07S WCI  27
GREEN BAY      CLEAR     34  31  88 SE5       30.05S WCI  30
MANITOWOC      CLEAR     35  32  88 S7        30.07S WCI  29
APPLETON       PTCLDY    36  28  75 SE6       30.02S WCI  31
CLINTONVILLE   MOCLDY    34  27  75 SE3       30.04R
OSHKOSH        CLEAR     35  29  78 SE5       30.03S WCI  31
$$

WIZ032>034-041-042-053>061-280200-
SOUTHWEST WISCONSIN

CITY           SKY/WX    TMP DP  RH WIND       PRES   REMARKS
LA CROSSE      CLEAR     42  30  62 SE8       29.95F
SPARTA         CLEAR     34  28  80 E6        29.98S WCI  29
VIROQUA        CLEAR     38  32  79 SE7       29.95F WCI  33
BOSCOBEL       MOCLDY    37  31  78 NE3       29.98S
PRAIRIE DU CHI MOCLDY    43  32  65 E8        29.96S
PLATTEVILLE    CLOUDY    42  32  67 E8        29.98S
$$

WIZ056-057-062-063-064-067-068-280200-
SOUTH CENTRAL WISCONSIN

CITY           SKY/WX    TMP DP  RH WIND       PRES   REMARKS
REEDSBURG      PTCLDY    40  32  74 CALM      29.99S
BARABOO/DELLS  PTCLDY    37  31  79 CALM      30.00S
LONE ROCK      PTCLDY    38  31  76 E3        30.00S
MINERAL POINT  CLOUDY    43  32  65 SE3       29.98S
MADISON        CLOUDY    39  29  67 E3        30.01S
MIDDLETON      CLOUDY    40  32  75 CALM      30.01S
WATERTOWN      CLOUDY    38  32  80 E6        30.03S WCI  34
MONROE         CLOUDY    41  32  70 SE7       30.00S
JANESVILLE     PTCLDY    43  34  70 E6        30.02F
$$

WIZ051-052-058>065-066-070>072-280200-
SOUTHEAST WISCONSIN

CITY           SKY/WX    TMP DP  RH WIND       PRES   REMARKS
MILWAUKEE      CLOUDY    42  33  70 S7        30.06S
WAUKESHA       PTCLDY    39  32  75 SE7       30.06R WCI  34
MILWAUKEE/TIMM CLEAR     43  30  61 S6        30.06R
RACINE         CLOUDY    42  33  70 S9        30.08S
KENOSHA        CLOUDY    40  33  76 SE8       30.06F WCI  34
FOND DU LAC    CLOUDY    38  30  73 SE10      30.03S WCI  31
SHEBOYGAN      PTCLDY    34  31  88 S3        30.06R
WEST BEND      CLOUDY    36  34  93 CALM      30.05S
JUNEAU         PTCLDY    38  32  77 SE8       30.04S WCI  33
$$

LSZ147-162-280200-
LAKE SUPERIOR

STATION/POSITION TIME  TEMP    WIND        PRES    WAVE
                       AIR SEA DIR/SP/G            HT/PER
                 (UTC) (F)     (DEG/KT/KT) (MB)    (FT/S)
DEVILS ISLAND    0100   30     100/ 14/ 16 1014.8S
PORT WING        0040   29      50/  7/  7 1013.2S
SAXON HARBOR     0040   29     200/  1/  2 1013.9R
$$

LMZ867-665-643>646-280200-
LAKE MICHIGAN

STATION/POSITION TIME  TEMP    WIND        PRES    WAVE
                       AIR SEA DIR/SP/G            HT/PER
                 (UTC) (F)     (DEG/KT/KT) (MB)    (FT/S)
CHAMBERS ISLAND  0040   34     150/  3/  8 1017.6S
NORTHPORT PIER   0040   35     170/  5/  9 1017.9S
SISTER BAY       0035   35     180/ 12/ 15   N/A
KEWAUNEE LAKESHO 0054   36     160/  7/  8 1017.8F
SHEBOYGAN LAKESH 0100   37     180/  8/  9 1018.7R
PORT WASHINGTON  0030   38     190/  6/ 10 1019.0R
MILWAUKEE LAKESH 0100   40     190/  4/  5   N/A
KENOSHA   LAKESH 0100   40     170/ 10/ 14 1018.3
$$

TC  - TEMPERATURE IN CELSIUS
VSB - VISIBILITY IN STATUTE MILES
WCI - WIND CHILL INDEX
HX  - HEAT INDEX





USA.gov is the U.S. government's official web portal to all federal, state and local government web resources and services.